Location: Waco, TX
(31.5480°N, 97.1670°W)
Time: 01:03:15
(UTC-05:00)

ISS - Pass Details

Date: 15 August 2018
Orbit: 402 x 409 km, 51.6° (Epoch: 16 August)

Event Time Altitude Azimuth Distance (km) Brightness Sun altitude
Rises 18:06:33 0° 330° (NNW) 2,316 0.4 25.5°
Reaches altitude 10° 18:09:09 10° 352° (N) 1,455 -0.8 24.9°
Maximum altitude 18:11:23 17° 35° (NE) 1,109 -1.8 24.4°
Drops below altitude 10° 18:13:36 10° 79° (ENE) 1,454 -1.5 24.0°
Sets 18:16:12 0° 100° (E) 2,312 -0.6 23.4°
